Weather History for KNRB - July, 2013

Change the Weather History Date:

Wednesday, July 10, 2013

  Actual Average Record
Temperature  
Mean Temperature 78 °F -  
Max Temperature 86 °F 87 °F 99 °F (2001)
Min Temperature 73 °F 73 °F 70 °F (2000)
Cooling Degree Days 14    
Growing Degree Days 28 (Base 50)    
Moisture  
Dew Point 73 °F    
Average Humidity 82    
Maximum Humidity 100    
Minimum Humidity 67    
Precipitation  
Precipitation 0.00 in - - ()
Sea Level Pressure  
Sea Level Pressure 30.07 in    
Wind  
Wind Speed 6 mph (SE)    
Max Wind Speed 15 mph    
Max Gust Speed 22 mph    
Visibility 10 miles    
Events      
Averages and records for this station are not official NWS values.
T = Trace of Precipitation, MM = Missing Value Source: NWS Daily Summary

Daily Weather History Graph

Daily Weather History Graph

Search for Another Location

Airport or City:

Trip Planner

Search our weather history database for the weather conditions in past years. The results will help you decide how hot, cold, wet, or windy it might be!

Date:

Astronomy

Jul. 10, 2013 Rise Set
Actual Time 6:31 AM EDT 8:30 PM EDT
Civil Twilight 6:04 AM EDT 8:57 PM EDT
Nautical Twilight 5:31 AM EDT 9:30 PM EDT
Astronomical Twilight 4:56 AM EDT 10:05 PM EDT
Moon 8:38 AM EDT (7/10) 9:54 PM EDT (7/10)
Length of Visible Light 14h 53m
Length of Day
13h 59m
Waxing Crescent, 5% of the Moon is Illuminated
Jul 10
Waxing Crescent
Jul 15
First Quarter
Jul 22
Full
Jul 29
Last Quarter
Aug 6
New

Hourly Weather History & Observations

Time (EDT) Temp. Heat Index Dew Point Humidity Pressure Visibility Wind Dir Wind Speed Gust Speed Precip Events Conditions
12:52 AM 75.9 °F - 73.0 °F 91% 30.12 in 10.0 mi SE 3.5 mph - N/A   Partly Cloudy
1:52 AM 75.9 °F - 73.0 °F 91% 30.11 in 10.0 mi SE 4.6 mph - N/A   Clear
2:52 AM 75.0 °F - 72.0 °F 90% 30.09 in 10.0 mi SSE 4.6 mph - N/A   Clear
3:52 AM 73.9 °F - 72.0 °F 93% 30.10 in 10.0 mi SSE 3.5 mph - N/A   Clear
4:52 AM 73.0 °F - 72.0 °F 96% 30.10 in 10.0 mi Calm Calm - N/A   Clear
5:52 AM 73.0 °F - 72.0 °F 96% 30.08 in 10.0 mi Calm Calm - N/A   Scattered Clouds
6:52 AM 73.0 °F - 73.0 °F 100% 30.09 in 10.0 mi Calm Calm - N/A   Scattered Clouds
7:52 AM 75.9 °F - 75.0 °F 97% 30.09 in 10.0 mi Calm Calm - N/A   Mostly Cloudy
8:52 AM 80.1 °F 85.1 °F 75.0 °F 85% 30.11 in 10.0 mi Variable 3.5 mph - N/A   Mostly Cloudy
9:52 AM 82.0 °F 87.4 °F 73.0 °F 74% 30.11 in 10.0 mi SE 6.9 mph - N/A   Mostly Cloudy
10:52 AM 84.0 °F 90.2 °F 73.0 °F 69% 30.11 in 10.0 mi SSE 9.2 mph - N/A   Mostly Cloudy
11:52 AM 84.9 °F 92.1 °F 73.9 °F 69% 30.11 in 10.0 mi ESE 11.5 mph - N/A   Mostly Cloudy
12:52 PM 84.0 °F 91.2 °F 73.9 °F 72% 30.10 in 10.0 mi SE 12.7 mph - N/A   Mostly Cloudy
1:52 PM 84.9 °F 92.1 °F 73.9 °F 69% 30.08 in 10.0 mi SE 15.0 mph - N/A   Mostly Cloudy
2:52 PM 84.9 °F 91.4 °F 73.0 °F 67% 30.05 in 10.0 mi SE 12.7 mph - N/A   Mostly Cloudy
3:52 PM 84.9 °F 91.4 °F 73.0 °F 67% 30.04 in 10.0 mi SE 13.8 mph - N/A   Scattered Clouds
4:52 PM 84.0 °F 89.6 °F 72.0 °F 67% 30.03 in 10.0 mi SE 13.8 mph 21.9 mph N/A   Mostly Cloudy
5:52 PM 82.0 °F 86.7 °F 72.0 °F 71% 30.02 in 10.0 mi SE 12.7 mph - N/A   Mostly Cloudy
6:52 PM 81.0 °F 85.8 °F 73.0 °F 77% 29.99 in 10.0 mi SE 11.5 mph - N/A   Mostly Cloudy
7:52 PM 79.0 °F - 73.0 °F 82% 29.99 in 10.0 mi SSE 11.5 mph - N/A   Mostly Cloudy
8:52 PM 79.0 °F - 72.0 °F 79% 30.00 in 10.0 mi SSE 9.2 mph 18.4 mph N/A   Scattered Clouds
9:52 PM 78.1 °F - 73.0 °F 84% 30.02 in 10.0 mi South 11.5 mph - N/A   Partly Cloudy
10:52 PM 78.1 °F - 73.9 °F 87% 30.05 in 10.0 mi SSE 9.2 mph - N/A   Scattered Clouds
11:52 PM 78.1 °F - 73.9 °F 87% 30.04 in 10.0 mi South 10.4 mph - N/A   Partly Cloudy